Location: *
(45.9500°N, 9.0833°E)
Time: 18:43:23
(UTC+00:00)

Courier 1B - All Passes

Search period start: 18 June 2021 00:00
Search period end: 28 June 2021 00:00
Orbit: 962 x 1209 km, 28.3° (Epoch: 17 June)

Date Brightness Start Highest point End Pass type
(mag) Time Alt. Az. Time Alt. Az. Time Alt. Az.
18 Jun - 12:19:46 10° SSW 12:24:23 17° SSE 12:28:55 10° SE daylight
18 Jun - 14:12:12 10° SW 14:17:24 20° S 14:22:27 10° SE daylight
18 Jun - 16:06:49 10° SW 16:10:17 14° SSW 16:13:41 10° S daylight
19 Jun - 11:26:45 10° SSW 11:30:47 15° SSE 11:34:48 10° SE daylight
19 Jun - 13:18:28 10° SW 13:23:47 20° S 13:28:59 10° SE daylight
19 Jun - 15:12:23 10° SW 15:16:46 16° SSW 15:21:01 10° SSE daylight
20 Jun - 10:34:11 10° S 10:37:12 13° SSE 10:40:14 10° SE daylight
20 Jun - 12:24:53 10° SW 12:30:10 20° S 12:35:21 10° SE daylight
20 Jun - 14:18:14 10° SW 14:23:11 18° S 14:28:01 10° SSE daylight
21 Jun - 11:31:30 10° SSW 11:36:31 19° S 11:41:32 10° SE daylight
21 Jun - 13:24:17 10° SW 13:29:35 20° S 13:34:46 10° SE daylight
21 Jun - 15:19:30 10° SW 15:22:28 13° SSW 15:25:24 10° S daylight
22 Jun - 10:38:19 10° SSW 10:42:55 17° SSE 10:47:31 10° SE daylight
22 Jun - 12:30:31 10° SW 12:35:57 21° S 12:41:19 10° SE daylight
22 Jun - 14:24:48 10° SW 14:28:56 15° SSW 14:32:59 10° SSE daylight
23 Jun - 09:45:27 10° SSW 09:49:19 14° SSE 09:53:12 10° SE daylight
23 Jun - 11:36:53 10° SW 11:42:18 20° S 11:47:43 10° SE daylight
23 Jun - 13:30:32 10° SW 13:35:20 18° SSW 13:40:05 10° SSE daylight
24 Jun - 08:53:14 10° S 08:55:46 12° SSE 08:58:18 10° SE daylight
24 Jun - 10:43:25 10° SW 10:48:40 20° S 10:53:56 10° SE daylight
24 Jun - 12:36:32 10° SW 12:41:44 19° S 12:46:53 10° SSE daylight
24 Jun - 14:32:40 10° SW 14:34:36 11° SSW 14:36:31 10° S daylight
25 Jun - 09:50:10 10° SSW 09:55:02 18° SSE 09:59:59 10° SE daylight
25 Jun - 11:42:42 10° SW 11:48:05 20° S 11:53:29 10° SE daylight
25 Jun - 13:37:26 10° SW 13:41:03 14° SSW 13:44:38 10° S daylight
26 Jun - 08:57:10 10° SSW 09:01:27 16° SSE 09:05:47 10° SE daylight
26 Jun - 10:49:03 10° SW 10:54:26 21° S 10:59:53 10° SE daylight
26 Jun - 12:43:01 10° SW 12:47:28 16° SSW 12:51:54 10° SSE daylight
27 Jun - 08:04:35 10° S 08:07:54 13° SSE 08:11:15 10° SE daylight
27 Jun - 09:55:34 10° SW 10:00:48 20° S 10:06:09 10° SE daylight
27 Jun - 11:48:56 10° SW 11:53:51 18° S 11:58:48 10° SSE daylight
